GW4151 Weather Reports


time (UTC)temp
C
wind
direction
speed
KPH
gust
KPH
rain 1hr
cm
rain 24hr
cm
rain mn
cm
humidity
%
barometer
mb
20260510204050 15 219 4.8 9.7 0.00 0.00 0.00 38 999.1
20260510202548 15 209 6.4 6.4 0.00 0.00 0.00 35 999.0
20260510201044 14 173 6.4 17.7 0.00 0.00 0.00 37 999.4
20260510195542 13 245 9.7 20.9 0.00 0.00 0.00 35 999.5
20260510194041 13 191 6.4 14.5 0.00 0.00 0.00 37 999.4
20260510192537 14 234 6.4 9.7 0.00 0.00 0.00 37 999.7
20260510191032 13 271 9.7 12.9 0.00 0.00 0.00 37 999.7
20260510185529 13 303 9.7 16.1 0.00 0.00 0.00 36 999.8
20260510184025 13 219 11.3 16.1 0.00 0.00 0.00 37 999.8
20260510182520 13 257 6.4 16.1 0.00 0.00 0.00 39 999.8
20260510181020 12 269 3.2 9.7 0.00 0.00 0.00 39 999.5
20260510175515 13 255 8.0 17.7 0.00 0.00 0.00 39 999.3
20260510174013 12 247 8.0 14.5 0.00 0.00 0.00 37 999.1
20260510172512 13 291 11.3 16.1 0.00 0.00 0.00 38 998.9
20260510171008 13 247 8.0 17.7 0.00 0.00 0.00 38 999.2
20260510165508 12 270 9.7 14.5 0.00 0.00 0.00 38 999.1
20260510164004 12 291 11.3 17.7 0.00 0.00 0.00 38 999.0
20260510162504 12 255 11.3 16.1 0.00 0.00 0.00 36 999.0
20260510160959 12 249 12.9 14.5 0.00 0.00 0.00 36 998.9
20260510155458 13 280 4.8 12.9 0.00 0.00 0.00 36 998.8
20260510153955 12 269 9.7 14.5 0.00 0.00 0.00 37 998.8
20260510152452 12 306 11.3 16.1 0.00 0.00 0.00 39 998.6
20260510150947 12 173 3.2 9.7 0.00 0.00 0.00 40 998.6
20260510145442 12 261 3.2 4.8 0.00 0.00 0.00 39 998.4
20260510143942 13 289 1.6 4.8 0.00 0.00 0.00 39 998.1
20260510142438 11 175 0.0 9.7 0.00 0.00 0.00 39 998.2
20260510140935 11 198 3.2 6.4 0.00 0.00 0.00 43 998.1
20260510135432 11 159 1.6 3.2 0.00 0.00 0.00 42 998.1
20260510133928 11 153 1.6 1.6 0.00 0.00 0.00 41 998.0
20260510132423 10 113 1.6 3.2 0.00 0.00 0.00 45 997.7
20260510130920 11 180 0.0 3.2 0.00 0.00 0.00 49 997.6
20260510125415 11 241 3.2 3.2 0.00 0.00 0.00 46 997.5
20260510123911 11 165 0.0 1.6 0.00 0.00 0.00 53 997.4
20260510122410 11 182 0.0 1.6 0.00 0.00 0.00 60 997.3
20260510120908 8 180 0.0 1.6 0.00 0.00 0.00 64 997.0
20260510115403 8 190 0.0 0.0 0.00 0.00 0.00 66 997.1
20260510113902 6 188 0.0 0.0 0.00 0.00 0.00 76 996.9
20260510112358 5 188 0.0 0.0 0.00 0.00 0.00 77 996.6
20260510110858 2 188 0.0 0.0 0.00 0.00 0.00 87 996.1
20260510105356 1 185 0.0 0.0 0.00 0.00 0.00 90 996.1
20260510103851 1 185 0.0 0.0 0.00 0.00 0.00 89 996.0
20260510102346 1 186 0.0 0.0 0.00 0.00 0.00 90 995.8
20260510100843 0 186 0.0 0.0 0.00 0.00 0.00 90 995.5
20260510095338 0 186 0.0 0.0 0.00 0.00 0.00 88 995.2
20260510093836 1 186 0.0 0.0 0.00 0.00 0.00 87 995.2
20260510092336 1 186 0.0 0.0 0.00 0.00 0.00 84 994.9
20260510090831 2 187 0.0 0.0 0.00 0.00 0.00 84 994.6
20260510085330 2 177 0.0 0.0 0.00 0.00 0.00 83 994.5
20260510083826 2 196 0.0 0.0 0.00 0.00 0.00 83 994.2
20260510082321 2 194 0.0 0.0 0.00 0.00 0.00 80 994.0
20260510080818 3 184 0.0 0.0 0.00 0.00 0.00 77 993.8
20260510075313 3 193 0.0 0.0 0.00 0.00 0.00 74 993.7
20260510073809 3 165 0.0 0.0 0.00 0.00 0.00 75 993.3
20260510072306 5 186 0.0 1.6 0.00 0.00 0.00 71 993.2
20260510070802 5 93 1.6 1.6 0.00 0.00 0.00 67 992.9
20260510065301 6 154 0.0 1.6 0.00 0.00 0.00 65 993.0
20260510063757 6 116 1.6 3.2 0.00 0.00 0.00 65 992.8
20260510062257 6 126 1.6 1.6 0.00 0.00 0.00 66 993.1
20260510060757 7 38 3.2 4.8 0.00 0.00 0.00 64 992.9
20260510055256 7 320 9.7 12.9 0.00 0.00 0.00 61 992.7
20260510053751 8 6 8.0 20.9 0.00 0.00 0.00 63 992.3
20260510052251 8 18 4.8 6.4 0.00 0.00 0.00 65 991.8
20260510050747 8 310 3.2 9.7 0.00 0.00 0.00 63 991.3
20260510045243 8 24 4.8 6.4 0.00 0.00 0.00 63 991.0
20260510043739 8 167 0.0 9.7 0.00 0.00 0.00 64 990.6
20260510042235 9 259 3.2 9.7 0.00 0.00 0.00 65 990.4
20260510040732 10 338 3.2 9.7 0.00 0.00 0.00 64 990.0
20260510035232 10 294 6.4 14.5 0.00 0.00 0.00 62 989.6
20260510033728 10 81 9.7 14.5 0.00 0.00 0.00 61 989.1
20260510032224 10 279 3.2 11.3 0.00 0.00 0.00 59 989.0
20260510030720 10 327 4.8 6.4 0.00 0.00 0.00 60 989.0
20260510025219 10 267 1.6 6.4 0.00 0.00 0.00 59 988.8
20260510023719 10 329 1.6 3.2 0.00 0.00 0.00 60 988.7
20260510022219 11 281 1.6 3.2 0.00 0.00 0.00 58 988.6
20260510020719 11 224 1.6 4.8 0.00 0.00 0.00 57 988.3
20260510015218 12 194 0.0 1.6 0.00 0.00 0.00 55 988.1
20260510013717 12 192 1.6 3.2 0.00 0.00 0.00 55 987.8
20260510012214 12 238 1.6 9.7 0.00 0.00 0.00 54 987.6
20260510010713 13 33 4.8 11.3 0.00 0.00 0.00 54 987.4
20260510005208 13 331 4.8 9.7 0.00 0.00 0.00 53 987.2
20260510003707 13 302 3.2 4.8 0.00 0.00 0.00 53 986.9
20260510002205 14 303 6.4 17.7 0.00 0.00 0.00 51 986.8
20260510000701 15 357 4.8 4.8 0.00 0.00 0.00 51 986.6
20260509235158 15 201 1.6 6.4 0.00 0.00 0.00 49 986.2
20260509233655 15 290 8.0 17.7 0.00 0.00 0.00 48 986.1
20260509232151 16 284 9.7 16.1 0.00 0.00 0.00 45 985.8
20260509230648 16 251 9.7 16.1 0.00 0.00 0.00 37 985.8
20260509225148 16 322 6.4 16.1 0.00 0.00 0.00 38 985.6
20260509223644 16 348 14.5 24.1 0.00 0.00 0.00 44 985.4
20260509222139 16 305 9.7 14.5 0.00 0.00 0.00 50 985.0
20260509220639 17 293 11.3 17.7 0.00 0.00 0.00 52 984.3
20260509215134 18 248 17.7 20.9 0.00 0.00 0.00 56 983.8
20260509213631 18 274 8.0 11.3 0.00 0.00 0.00 57 983.6
20260509212127 18 238 3.2 11.3 0.00 0.00 0.00 60 983.7
20260509210622 18 242 3.2 14.5 0.00 0.00 0.00 59 983.4